El Paso, TX

6:40 AM MDT on April 25, 2017 (GMT -0600)
El Paso International

Weather History for KELP - May, 2013

Change the Weather History Date:

Thursday, May 2, 2013

  Actual Average Record
Temperature  
Mean Temperature 56 °F 70 °F  
Max Temperature 65 °F 83 °F 95 °F (1940)
Min Temperature 47 °F 56 °F 31 °F (1967)
Degree Days  
Heating Degree Days 9 1  
Month to date heating degree days 9 2  
Since 1 July heating degree days 2207 2467  
Cooling Degree Days 0 6  
Month to date cooling degree days 12 11  
Year to date cooling degree days 179 103  
Growing Degree Days 10 (Base 50)    
Moisture  
Dew Point 24 °F    
Average Humidity 35    
Maximum Humidity 50    
Minimum Humidity 19    
Precipitation  
Precipitation 0.00 in 0.01 in 0.49 in (1928)
Month to date precipitation 0.00 0.02  
Year to date precipitation 0.71 1.37  
Snow  
Snow 0.00 in - - ()
Month to date snowfall 0.0  
Since 1 July snowfall 3.1  
Snow Depth 0.00 in    
Sea Level Pressure  
Sea Level Pressure 30.20 in    
Wind  
Wind Speed 14 mph (ENE)    
Max Wind Speed 24 mph    
Max Gust Speed 32 mph    
Visibility 9 miles    
Events      
T = Trace of Precipitation, MM = Missing Value Source: NWS Daily Summary

Daily Weather History Graph

Daily Weather History Graph

Search for Another Location

Airport or City:

Trip Planner

Search our weather history database for the weather conditions in past years. The results will help you decide how hot, cold, wet, or windy it might be!

Date:

Astronomy

May. 02, 2013 Rise Set
Actual Time 6:18 AM MDT 7:46 PM MDT
Civil Twilight 5:52 AM MDT 8:12 PM MDT
Nautical Twilight 5:21 AM MDT 8:43 PM MDT
Astronomical Twilight 4:49 AM MDT 9:16 PM MDT
Moon 1:41 AM MDT (5/2) 1:04 PM MDT (5/2)
Length of Visible Light 14h 20m
Length of Day
13h 27m
Waning Gibbous, 47% of the Moon is Illuminated
May 2
Waning Gibbous
May 9
New
May 17
First Quarter
May 24
Full
May 31
Last Quarter

Hourly Weather History & Observations

Time (MDT) Temp. Dew Point Humidity Pressure Visibility Wind Dir Wind Speed Gust Speed Precip Events Conditions
12:51 AM 66.0 °F 34.0 °F 30% 29.85 in 10.0 mi East 20.7 mph 25.3 mph N/A   Clear
1:51 AM 59.0 °F 34.0 °F 39% 29.92 in 7.0 mi Variable 3.5 mph 18.4 mph N/A   Clear
2:20 AM 55.4 °F 33.8 °F 44% 30.12 in 4.0 mi ENE 16.1 mph 21.9 mph N/A   Widespread Dust
2:51 AM 54.0 °F 33.1 °F 45% 29.98 in 3.0 mi East 11.5 mph 23.0 mph N/A   Widespread Dust
3:51 AM 53.1 °F 32.0 °F 45% 30.02 in 6.0 mi NNE 13.8 mph - N/A   Clear
4:51 AM 48.0 °F 30.9 °F 52% 30.09 in 10.0 mi NNE 19.6 mph - N/A   Clear
5:51 AM 48.0 °F 30.0 °F 50% 30.13 in 10.0 mi NE 16.1 mph - N/A   Clear
6:51 AM 46.9 °F 28.9 °F 50% 30.18 in 10.0 mi North 12.7 mph - N/A   Clear
7:51 AM 48.9 °F 28.0 °F 44% 30.21 in 10.0 mi NE 15.0 mph - N/A   Clear
8:51 AM 51.1 °F 24.1 °F 35% 30.24 in 10.0 mi ENE 13.8 mph - N/A   Clear
9:51 AM 53.1 °F 23.0 °F 31% 30.26 in 10.0 mi NE 8.1 mph - N/A   Clear
10:51 AM 55.9 °F 23.0 °F 28% 30.26 in 10.0 mi NE 11.5 mph 19.6 mph N/A   Clear
11:51 AM 59.0 °F 23.0 °F 25% 30.26 in 10.0 mi ENE 15.0 mph 23.0 mph N/A   Clear
12:51 PM 60.1 °F 23.0 °F 24% 30.27 in 10.0 mi NE 13.8 mph 23.0 mph N/A   Clear
1:51 PM 61.0 °F 21.9 °F 22% 30.27 in 10.0 mi East 15.0 mph 27.6 mph N/A   Clear
2:51 PM 62.1 °F 21.9 °F 21% 30.26 in 10.0 mi East 12.7 mph 27.6 mph N/A   Clear
3:51 PM 62.1 °F 21.0 °F 21% 30.25 in 10.0 mi ESE 17.3 mph 24.2 mph N/A   Clear
4:51 PM 63.0 °F 19.9 °F 19% 30.24 in 10.0 mi ENE 15.0 mph 21.9 mph N/A   Clear
5:51 PM 62.1 °F 19.9 °F 20% 30.25 in 10.0 mi East 17.3 mph 25.3 mph N/A   Clear
6:51 PM 59.0 °F 19.9 °F 22% 30.26 in 10.0 mi East 19.6 mph 26.5 mph N/A   Clear
7:51 PM 55.9 °F 19.0 °F 24% 30.28 in 10.0 mi East 19.6 mph 26.5 mph N/A   Clear
8:51 PM 54.0 °F 18.0 °F 24% 30.30 in 10.0 mi East 19.6 mph 28.8 mph N/A   Clear
9:51 PM 52.0 °F 18.0 °F 26% 30.32 in 10.0 mi East 10.4 mph - N/A   Clear
10:51 PM 50.0 °F 17.1 °F 27% 30.34 in 10.0 mi East 11.5 mph 18.4 mph N/A   Clear
11:51 PM 48.9 °F 16.0 °F 27% 30.33 in 10.0 mi ESE 10.4 mph - N/A   Clear